When you browse on this site, cookies collect data to enhance your experience and personalize the content and advertising you see.
Visit our Privacy Policy to learn more. By continuing to use the site, you agree to this use of cookies and data.
  • în România
  • Lista ţărilor
  • Pe 7 zile
  • Temperatura apei
  • Hartă satelitară
  • Meteo pe hartă
  • Widget-uri
  • user-avatar
    Intrare

    Meteo pe oră la Irsaevo

    Astăzi, 21 Februarie, Joi

    Timp Temperatura Precipitaţii Vânt Presiune Umiditate
    00:00 -16°C° 0 mm 6 m/s 744 mmHg 91%
    01:00 -15°C° 0 mm 6 m/s 744 mmHg 92%
    02:00 -14°C° 0.1 mm 7 m/s 744 mmHg 92%
    03:00 -13°C° 0.1 mm 7 m/s 744 mmHg 92%
    04:00 -13°C° 0.1 mm 7 m/s 744 mmHg 93%
    05:00 -12°C° 0.1 mm 7 m/s 744 mmHg 92%
    06:00 -11°C° 0.1 mm 7 m/s 744 mmHg 92%
    07:00 -11°C° 0.1 mm 7 m/s 743 mmHg 92%
    08:00 -9°C° 0.1 mm 7 m/s 743 mmHg 92%
    09:00 -9°C° 0.1 mm 7 m/s 743 mmHg 92%
    10:00 -9°C° 0.1 mm 7 m/s 744 mmHg 91%
    11:00 -9°C° 0.2 mm 7 m/s 744 mmHg 92%
    12:00 -8°C° 0.2 mm 7 m/s 744 mmHg 92%
    13:00 -8°C° 0.2 mm 7 m/s 744 mmHg 93%
    14:00 -8°C° 0.5 mm 7 m/s 744 mmHg 93%
    15:00 -8°C° 0.5 mm 7 m/s 744 mmHg 93%
    16:00 -8°C° 0.5 mm 7 m/s 744 mmHg 93%
    17:00 -7°C° 0.5 mm 7 m/s 744 mmHg 93%
    18:00 -7°C° 0.5 mm 7 m/s 744 mmHg 93%
    19:00 -7°C° 0.5 mm 7 m/s 745 mmHg 93%
    20:00 -7°C° 0.5 mm 7 m/s 745 mmHg 93%
    21:00 -6°C° 0.5 mm 6 m/s 745 mmHg 93%
    22:00 -6°C° 0.5 mm 6 m/s 745 mmHg 93%
    23:00 -5°C° 0.5 mm 6 m/s 745 mmHg 93%

    Mâine, 22 Februarie, Vineri

    Timp Temperatura Precipitaţii Vânt Presiune Umiditate
    00:00 -5°C° 0.5 mm 6 m/s 745 mmHg 92%
    01:00 -4°C° 0.5 mm 6 m/s 745 mmHg 92%
    02:00 -4°C° 0.2 mm 7 m/s 745 mmHg 91%
    03:00 -4°C° 0.2 mm 7 m/s 745 mmHg 90%
    04:00 -3°C° 0.2 mm 7 m/s 745 mmHg 90%
    05:00 -4°C° 0.1 mm 7 m/s 744 mmHg 90%
    06:00 -4°C° 0.1 mm 7 m/s 744 mmHg 90%
    07:00 -6°C° 0.1 mm 7 m/s 744 mmHg 91%
    08:00 -6°C° 0.2 mm 7 m/s 744 mmHg 91%
    09:00 -6°C° 0.2 mm 7 m/s 744 mmHg 91%
    10:00 -6°C° 0.2 mm 7 m/s 744 mmHg 91%
    11:00 -6°C° 0.4 mm 7 m/s 744 mmHg 91%
    12:00 -6°C° 0.4 mm 7 m/s 744 mmHg 91%
    13:00 -6°C° 0.4 mm 7 m/s 743 mmHg 91%
    14:00 -4°C° 0.3 mm 7 m/s 743 mmHg 91%
    15:00 -4°C° 0.3 mm 6 m/s 743 mmHg 91%
    16:00 -3°C° 0.3 mm 6 m/s 743 mmHg 91%
    17:00 -4°C° 0.5 mm 6 m/s 743 mmHg 92%
    18:00 -4°C° 0.5 mm 6 m/s 743 mmHg 92%
    19:00 -4°C° 0.5 mm 6 m/s 744 mmHg 93%
    20:00 -5°C° 0.3 mm 6 m/s 744 mmHg 91%
    21:00 -8°C° 0.3 mm 6 m/s 745 mmHg 90%
    22:00 -9°C° 0.3 mm 7 m/s 746 mmHg 89%
    23:00 -10°C° 0.1 mm 6 m/s 747 mmHg 89%

    Poimâine, 23 Februarie, Sâmbătă

    Timp Temperatura Precipitaţii Vânt Presiune Umiditate
    00:00 -11°C° 0.1 mm 5 m/s 748 mmHg 90%
    01:00 -12°C° 0.1 mm 4 m/s 749 mmHg 91%
    02:00 -12°C° 0 mm 4 m/s 749 mmHg 91%
    03:00 -12°C° 0 mm 4 m/s 750 mmHg 92%
    04:00 -14°C° 0 mm 4 m/s 750 mmHg 93%
    05:00 -12°C° 0.1 mm 4 m/s 751 mmHg 93%
    06:00 -12°C° 0.1 mm 4 m/s 751 mmHg 93%
    07:00 -12°C° 0.1 mm 4 m/s 751 mmHg 93%
    08:00 -11°C° 0.1 mm 4 m/s 752 mmHg 92%
    09:00 -12°C° 0.1 mm 5 m/s 752 mmHg 92%
    10:00 -12°C° 0.1 mm 5 m/s 752 mmHg 91%
    11:00 -11°C° 0 mm 5 m/s 752 mmHg 91%
    12:00 -11°C° 0 mm 5 m/s 752 mmHg 91%
    13:00 -10°C° 0 mm 4 m/s 752 mmHg 90%
    14:00 -10°C° 0.1 mm 4 m/s 753 mmHg 90%
    15:00 -10°C° 0.1 mm 4 m/s 753 mmHg 90%
    16:00 -10°C° 0.1 mm 4 m/s 753 mmHg 89%
    17:00 -11°C° 0 mm 4 m/s 753 mmHg 91%
    18:00 -12°C° 0 mm 3 m/s 753 mmHg 92%
    19:00 -13°C° 0 mm 3 m/s 753 mmHg 94%
    20:00 -13°C° 0 mm 3 m/s 753 mmHg 94%
    21:00 -13°C° 0 mm 3 m/s 753 mmHg 95%
    22:00 -14°C° 0 mm 3 m/s 754 mmHg 96%
    23:00 -13°C° 0.1 mm 3 m/s 754 mmHg 96%

    24 Februarie, Duminică

    Timp Temperatura Precipitaţii Vânt Presiune Umiditate
    00:00 -14°C° 0.1 mm 4 m/s 754 mmHg 96%
    01:00 -14°C° 0.1 mm 4 m/s 754 mmHg 96%
    02:00 -12°C° 0.2 mm 4 m/s 754 mmHg 96%
    03:00 -11°C° 0.2 mm 4 m/s 754 mmHg 95%
    04:00 -11°C° 0.2 mm 4 m/s 754 mmHg 95%
    05:00 -11°C° 0.1 mm 4 m/s 754 mmHg 95%
    06:00 -11°C° 0.1 mm 4 m/s 754 mmHg 95%
    07:00 -11°C° 0.1 mm 4 m/s 754 mmHg 95%
    08:00 -11°C° 0.1 mm 4 m/s 754 mmHg 94%
    09:00 -11°C° 0.1 mm 4 m/s 754 mmHg 94%
    10:00 -11°C° 0.1 mm 4 m/s 754 mmHg 93%
    11:00 -11°C° 0.1 mm 4 m/s 754 mmHg 92%
    12:00 -11°C° 0.1 mm 5 m/s 754 mmHg 91%
    13:00 -11°C° 0.1 mm 5 m/s 754 mmHg 90%
    14:00 -11°C° 0.1 mm 5 m/s 754 mmHg 90%
    15:00 -10°C° 0.1 mm 5 m/s 754 mmHg 89%
    16:00 -10°C° 0.1 mm 5 m/s 754 mmHg 89%
    17:00 -11°C° 0.1 mm 5 m/s 754 mmHg 90%
    18:00 -11°C° 0.1 mm 5 m/s 754 mmHg 90%
    19:00 -11°C° 0.1 mm 4 m/s 754 mmHg 91%
    20:00 -11°C° 0 mm 4 m/s 754 mmHg 92%
    21:00 -12°C° 0 mm 4 m/s 754 mmHg 92%
    22:00 -12°C° 0 mm 4 m/s 754 mmHg 92%
    23:00 -12°C° 0 mm 4 m/s 754 mmHg 93%

    25 Februarie, Luni

    Timp Temperatura Precipitaţii Vânt Presiune Umiditate
    00:00 -12°C° 0 mm 4 m/s 754 mmHg 93%
    01:00 -12°C° 0 mm 4 m/s 754 mmHg 94%
    02:00 -14°C° 0 mm 4 m/s 754 mmHg 94%
    03:00 -14°C° 0 mm 5 m/s 753 mmHg 94%
    04:00 -14°C° 0 mm 5 m/s 753 mmHg 94%
    05:00 -14°C° 0 mm 5 m/s 753 mmHg 94%
    06:00 -14°C° 0 mm 5 m/s 753 mmHg 94%
    07:00 -14°C° 0 mm 5 m/s 753 mmHg 94%
    08:00 -14°C° 0 mm 5 m/s 752 mmHg 94%
    09:00 -14°C° 0 mm 4 m/s 752 mmHg 94%
    10:00 -14°C° 0 mm 4 m/s 752 mmHg 95%
    11:00 -12°C° 0 mm 4 m/s 752 mmHg 94%
    12:00 -10°C° 0 mm 4 m/s 751 mmHg 93%
    13:00 -9°C° 0 mm 4 m/s 751 mmHg 92%
    14:00 -8°C° 0 mm 4 m/s 751 mmHg 92%
    15:00 -7°C° 0 mm 4 m/s 750 mmHg 92%
    16:00 -5°C° 0 mm 4 m/s 750 mmHg 92%
    17:00 -5°C° 0.1 mm 4 m/s 749 mmHg 93%
    18:00 -7°C° 0.1 mm 4 m/s 749 mmHg 93%
    19:00 -7°C° 0.1 mm 4 m/s 748 mmHg 94%
    20:00 -7°C° 0.2 mm 4 m/s 748 mmHg 94%
    21:00 -7°C° 0.2 mm 4 m/s 747 mmHg 94%
    22:00 -7°C° 0.2 mm 5 m/s 746 mmHg 94%
    23:00 -7°C° 0.2 mm 5 m/s 746 mmHg 94%

    26 Februarie, Marţi

    Timp Temperatura Precipitaţii Vânt Presiune Umiditate
    00:00 -7°C° 0.2 mm 5 m/s 745 mmHg 93%
    01:00 -7°C° 0.2 mm 5 m/s 745 mmHg 93%
    02:00 -7°C° 0.1 mm 5 m/s 745 mmHg 93%
    03:00 -7°C° 0.1 mm 5 m/s 744 mmHg 93%
    04:00 -7°C° 0.1 mm 5 m/s 744 mmHg 93%
    05:00 -8°C° 0 mm 4 m/s 743 mmHg 93%
    06:00 -10°C° 0 mm 4 m/s 743 mmHg 92%
    07:00 -11°C° 0 mm 4 m/s 743 mmHg 92%
    08:00 -11°C° 0.1 mm 4 m/s 743 mmHg 92%
    09:00 -11°C° 0.1 mm 4 m/s 742 mmHg 92%
    10:00 -12°C° 0.1 mm 5 m/s 742 mmHg 91%
    11:00 -10°C° 0.1 mm 4 m/s 742 mmHg 91%
    12:00 -10°C° 0.1 mm 4 m/s 742 mmHg 90%
    13:00 -10°C° 0.1 mm 4 m/s 741 mmHg 89%
    14:00 -9°C° 0.1 mm 4 m/s 741 mmHg 89%
    15:00 -9°C° 0.1 mm 4 m/s 741 mmHg 89%
    16:00 -8°C° 0.1 mm 3 m/s 741 mmHg 89%
    17:00 -8°C° 0.1 mm 3 m/s 741 mmHg 91%
    18:00 -9°C° 0.1 mm 3 m/s 741 mmHg 93%
    19:00 -9°C° 0.1 mm 3 m/s 741 mmHg 94%
    20:00 -9°C° 0.1 mm 3 m/s 740 mmHg 95%
    21:00 -9°C° 0.1 mm 3 m/s 740 mmHg 95%
    22:00 -10°C° 0.1 mm 4 m/s 740 mmHg 95%
    23:00 -9°C° 0.1 mm 3 m/s 739 mmHg 95%
    Arată mai mult